Notices

What's New in latest Release from April 7th, 2021:

- Updated Glossary, including Speed of Maximum Gust, and Total Hourly Precipitation

- Updated national and regional climate services offices contacts and prices information

- Addition of station inventory lists for 1981-2010, 1971-2000, and 1961-1990 Normals.

If you haven't already, please take our survey and provide feedback about our website: https://eccc.sondage-survey.ca/f/LanguageSelection.aspx?s=442ca660-fcf1-47c0-95a9-59707d6fd709

Hourly Data Report for February 01, 2017

TORONTO INTL A
ONTARIO

43°40'36.000" N
79°37'50.000" W
173.40 m
6158731
71624
YYZ

Download Data

Hourly Data (February 2017)
Hourly Data Report for February 1, 2017
TIME
LST
Temp Definition
°C
Dew Point Definition
°C
Rel Hum Definition
%
Precip. Amount Definition
mm

Wind Dir Definition
10's deg

Wind Spd Definition
km/h
Visibility Definition
km
Stn Press Definition
kPa
Hmdx Definition


Wind Chill Definition


Weather Definition


00:00 -3.8 -4.9 92   29 7 6.4 98.49   -7 Snow
01:00 -4.5 -5.5 93   26 4 4.8 98.53   -6 Snow
02:00 -4.4 -5.4 93   25 8 8.1 98.56   -8 Snow
03:00 -3.1 -4.2 92   24 14 12.9 98.62   -8 Snow
04:00 -2.2 -5.2 80   25 22 24.1 98.64   -8 Mostly Cloudy
05:00 -2.0 -5.0 80   25 26 24.1 98.68   -9 LegendNANA
06:00 -1.4 -4.6 79   25 19 24.1 98.70   -7 LegendNANA
07:00 -1.0 -4.5 77   26 22 24.1 98.76   -7 Mostly Cloudy
08:00 -1.1 -4.6 77   26 22 24.1 98.83   -7 LegendNANA
09:00 -0.7 -4.8 74   26 23 24.1 98.89   -7 LegendNANA
10:00 -0.2 -4.5 73   24 23 24.1 98.94   -6 Mostly Cloudy
11:00 0.5 -4.9 67   27 36 24.1 98.99     LegendNANA
12:00 0.9 -5.2 64   26 31 24.1 99.03     LegendNANA
13:00 1.0 -7.1 55   29 37 24.1 99.04     Mostly Cloudy
14:00 2.0 -7.1 51   30 28 24.1 99.05     LegendNANA
15:00 1.5 -7.6 51   27 35 24.1 99.12     LegendNANA
16:00 0.2 -5.2 67   28 25 24.1 99.21     Mostly Cloudy
17:00 0.7 -8.6 50   27 29 24.1 99.29     LegendNANA
18:00 0.2 -7.8 55   25 27 24.1 99.36     LegendNANA
19:00 -1.2 -5.1 75   31 26 24.1 99.44   -8 Mostly Cloudy
20:00 -1.3 -4.7 78   31 24 17.7 99.47   -7 Snow
21:00 -1.9 -4.3 84   28 13 24.1 99.46   -6 LegendNANA
22:00 -1.5 -5.2 76   29 19 9.7 99.45   -7 Snow
23:00 -2.0 -5.7 76   31 23 9.7 99.49   -8 Snow

Notes on Data Quality.

Legend

  • E = Estimated
  • M = Missing
  • NA = Not Available*
  • [empty] = Indicates an unobserved value
Date modified: